Watsonville, CA

5:38 PM PDT on March 25, 2017 (GMT -0700)
Watsonville Municipal

Weather History for KWVI - May, 2013

Change the Weather History Date:

Monday, May 6, 2013

  Actual Average Record
Temperature  
Mean Temperature 60 °F 58 °F  
Max Temperature 69 °F 69 °F 80 °F (2012)
Min Temperature 51 °F 47 °F 43 °F (2010)
Degree Days  
Heating Degree Days 5    
Month to date heating degree days 26  
Since 1 July heating degree days 2778  
Cooling Degree Days 0    
Month to date cooling degree days 6  
Year to date cooling degree days 6  
Growing Degree Days 10 (Base 50)    
Moisture  
Dew Point 49 °F    
Average Humidity 66    
Maximum Humidity 83    
Minimum Humidity 49    
Precipitation  
Precipitation 0.00 in - 0.22 in (1983)
Month to date precipitation T  
Year to date precipitation 2.34  
Since 1 July precipitation 13.28  
Sea Level Pressure  
Sea Level Pressure 29.89 in    
Wind  
Wind Speed 5 mph (WNW)    
Max Wind Speed 15 mph    
Max Gust Speed 21 mph    
Visibility 10 miles    
Events      
T = Trace of Precipitation, MM = Missing Value Source: NWS Daily Summary

Daily Weather History Graph

Daily Weather History Graph

Search for Another Location

Airport or City:

Trip Planner

Search our weather history database for the weather conditions in past years. The results will help you decide how hot, cold, wet, or windy it might be!

Date:

Astronomy

May. 06, 2013 Rise Set
Actual Time 6:07 AM PDT 8:00 PM PDT
Civil Twilight 5:38 AM PDT 8:29 PM PDT
Nautical Twilight 5:04 AM PDT 9:03 PM PDT
Astronomical Twilight 4:28 AM PDT 9:40 PM PDT
Moon 4:07 AM PDT (5/6) 5:09 PM PDT (5/6)
Length of Visible Light 14h 50m
Length of Day
13h 53m
Waning Crescent, 10% of the Moon is Illuminated
May 6
Waning Crescent
May 9
New
May 17
First Quarter
May 24
Full
May 31
Last Quarter

Hourly Weather History & Observations

Time (PDT) Temp. Dew Point Humidity Pressure Visibility Wind Dir Wind Speed Gust Speed Precip Events Conditions
12:53 AM 55.9 °F 48.0 °F 75% 29.83 in 10.0 mi WNW 3.5 mph - N/A   Scattered Clouds
1:53 AM 55.0 °F 48.0 °F 77% 29.83 in 10.0 mi NNW 4.6 mph - N/A   Overcast
2:53 AM 55.9 °F 46.9 °F 72% 29.83 in 10.0 mi WNW 4.6 mph - N/A   Overcast
3:53 AM 54.0 °F 46.9 °F 77% 29.83 in 10.0 mi WSW 3.5 mph - N/A   Overcast
4:53 AM 54.0 °F 46.9 °F 77% 29.83 in 10.0 mi NNW 3.5 mph - N/A   Overcast
5:53 AM 52.0 °F 46.0 °F 80% 29.83 in 10.0 mi NW 4.6 mph - N/A   Clear
6:53 AM 53.1 °F 46.9 °F 80% 29.85 in 10.0 mi NW 3.5 mph - N/A   Mostly Cloudy
7:53 AM 57.0 °F 48.0 °F 72% 29.87 in 10.0 mi Calm Calm - N/A   Overcast
8:53 AM 62.1 °F 48.9 °F 62% 29.87 in 10.0 mi ENE 3.5 mph - N/A   Overcast
9:53 AM 63.0 °F 48.0 °F 58% 29.88 in 10.0 mi Calm Calm - N/A   Overcast
10:53 AM 63.0 °F 50.0 °F 63% 29.89 in 10.0 mi Calm Calm - N/A   Overcast
11:53 AM 64.0 °F 48.9 °F 58% 29.90 in 10.0 mi SW 11.5 mph 19.6 mph N/A   Overcast
12:53 PM 64.0 °F 50.0 °F 60% 29.89 in 10.0 mi West 6.9 mph - N/A   Overcast
1:53 PM 66.0 °F 48.0 °F 52% 29.90 in 10.0 mi West 12.7 mph - N/A   Mostly Cloudy
2:53 PM 68.0 °F 48.9 °F 50% 29.90 in 10.0 mi WSW 10.4 mph - N/A   Mostly Cloudy
3:53 PM 66.0 °F 50.0 °F 56% 29.89 in 10.0 mi SSW 9.2 mph - N/A   Scattered Clouds
4:53 PM 63.0 °F 51.1 °F 65% 29.89 in 10.0 mi WSW 9.2 mph - N/A   Scattered Clouds
5:53 PM 61.0 °F 50.0 °F 67% 29.90 in 10.0 mi West 6.9 mph - N/A   Mostly Cloudy
6:53 PM 60.1 °F 50.0 °F 69% 29.91 in 10.0 mi WNW 6.9 mph - N/A   Overcast
7:53 PM 59.0 °F 50.0 °F 72% 29.91 in 10.0 mi Variable 5.8 mph - N/A   Mostly Cloudy
8:53 PM 57.9 °F 50.0 °F 75% 29.94 in 10.0 mi WNW 3.5 mph - N/A   Partly Cloudy
9:53 PM 57.9 °F 48.9 °F 72% 29.96 in 10.0 mi NW 3.5 mph - N/A   Overcast
10:53 PM 59.0 °F 48.9 °F 69% 29.98 in 10.0 mi WNW 4.6 mph - N/A   Overcast
11:53 PM 59.0 °F 48.9 °F 69% 29.98 in 10.0 mi WNW 3.5 mph - N/A   Overcast